カタログに戻る

FENGYUN 1C DEB

運用中SSO
NORAD 31512·DEBRIS·🇨🇳 China

打ち上げ May 10, 1999 から Taiyuan Satellite Launch Center

Loading…

次のパス (今後24時間)

TLE

経年Source: Space-Track

元期: Sep 10, 2026, 00:22 UTC

1 31512U 99025BXB 26253.01529442  .00001243  00000-0  32892-3 0  9999
2 31512  98.7833 162.7425 0143236  56.1138 317.1072 14.44774803694183

AllMySatでFENGYUN 1C DEBをリアルタイム追跡

Download on the App Store